| Shipment Reliability and Frequency | Volume of Goods |
|---|---|
| Avg. Shipments per Month: 7.08 | Average TEU per month: 11.17 |
| Active Months: 11 | Average TEU per Shipment: 1.46 |
| Shipment Frequency Std. Dev.: 5.36 |
| HS Code | Shipments |
|---|---|
| 940190 Seat; parts | 60 shipments |
| 940190.0 Seats (not those of heading no. 9402), whether or not convertible into beds and parts thereof | 52 shipments |
| 842611.0 Derricks, cranes, including cable cranes, mobile lifting frames, straddle carriers and works trucks fitted with a crane | 8 shipments |
| 842611 Cranes; overhead travelling cranes on fixed support | 5 shipments |
| 392220 Plastics; lavatory seats and covers | 1 shipments |
| 442190 Wooden articles n.e.c. in heading no. 4414 to 4420 | 1 shipments |
| 550992 Yarn; (not sewing thread), of synthetic staple fibres, mixed mainly or solely with cotton, n.e.c. in heading no. 5509, not put up for retail sale | 1 shipments |
| 722920 Steel, alloy; wire, of silico-manganese steel | 1 shipments |
| Arrival Date | Bill Of Lading | Consignee | Weight | HS Code | Description |
|---|---|---|---|---|---|
| 2026-07-04 | NFIFNGB26060047 | NOBLESPARK TRADE LLC | 6382.0 kg | 940190 | SEAT COVER |
| 2026-07-01 | NFIFNGB26050141 | ASCENT TRADE LLC | 6156.0 kg | 940190 | SEAT COVER |
| 2026-06-27 | DWSHHL2605290100 | UNITYGAIN TRADE LLC | 6464.0 kg | 550992 | SHIPPER S LOAD COUNT & SEAL S 1X40 HQ(FCL) CY-CY SEAT COVER |
| 2026-06-27 | NFIFNGB26060034 | DRIVESPARK TRADE LLC | 8019.0 kg | 940190 | SEAT COVER |
| 2026-06-23 | SMVSMJNBGR07910 | NOBLESPARK TRADE LLC | 6779.0 kg | 940190 | SEAT COVER |
| 2026-06-21 | NIOGSE26060560 | NOBLESPARK TRADE LLC | 6156.0 kg | 940190 | SEAT COVER |
| 2026-06-16 | NFIFNGB26050354 | OPTIMALPULSE TRADE LLC | 6264.0 kg | 940190 | SEAT COVER |
| 2026-06-16 | NFIFNGB26060024 | UNITYGAIN TRADE LLC | 6190.0 kg | 940190 | SEAT COVER |
| 2026-06-15 | NIOGSE26051356 | CRESTBLOOM TRADE LLC | 6151.0 kg | 940190 | SEAT COVER |
| 2026-06-12 | NFIFNGB26050334 | OCEANSPAN TRADE LLC | 5908.0 kg | 940190 | SEAT COVER |
| 2026-06-07 | NIOGSE26052393 | COREBLOOM TRADE LLC | 8807.0 kg | 940190 | SEAT COVER |
| 2026-06-07 | NIOGSE26052394 | COREBLOOM TRADE LLC | 8237.0 kg | 940190 | SEAT COVER |
| 2026-06-06 | NFIFNGB26050008 | VISTABOOM TRADE LLC | 6273.0 kg | 940190 | SEAT COVER |
| 2026-06-05 | NFIFNGB26050118 | KINETICVISTA TRADE LLC | 6316.0 kg | 940190 | SEAT COVER |
| 2026-06-04 | NFIFNGB26050095 | GENESISHARVEST TRADE LLC | 4762.0 kg | 940190 | SEAT COVER |
| 2026-05-30 | NFIFNGB26050017 | STERLING TRADE LLC | 6221.0 kg | 940190 | SEAT COVER |
| 2026-05-30 | NFIFNGB26050028 | PREMIUMCOMM TRADE LLC | 6418.0 kg | 940190 | SEAT COVERLUMBAR SUPPORTPILLOW |
| 2026-05-30 | NFIFNGB26050031 | STARFIELD TRADE LLC | 6336.0 kg | 842611 | SEAT COVER PILLOW LUMBAR SUPPORT |
| 2026-05-30 | NFIFNGB26050037 | GENESISHARVEST TRADE LLC | 7955.0 kg | 940190 | SEAT COVER SEAT HOOD |
| 2026-05-30 | NFIFNGB26050058 | STARCLUSTER TRADE LLC | 8635.0 kg | 722920 | SEAT COVER CAR FLOOR MAT CAR CENTER CONSOLES |
| 2026-05-24 | THGLNBO26050447 | KINETICVISTA TRADE LLC | 5821.0 kg | 940190 | SEAT COVER |
| 2026-05-19 | NFIFNGB26040179 | YIELDHARVEST TRADE LLC | 6179.0 kg | 842611 | SEAT COVER LUMBAR SUPPORT |
| 2026-05-15 | NFIFNGB26040187 | SWIFTSOAR TRADE LLC | 6500.0 kg | 940190 | SEAT COVER |
| 2026-05-12 | NHSONHTC26041329 | BROADACCEPT WEALTH TRADE LLC | 6166.0 kg | 940190 | SEAT COVER |
| 2026-05-11 | SZILNBZH26040272 | CATALYSTGAIN TRADE LLC | 6375.0 kg | 940190 | SEAT COVER |
| 2026-05-08 | NPSCSELNGB263243 | DRIVESPARK TRADE LLC | 8136.0 kg | 940190 | SEAT COVER |
| 2026-05-08 | NIVYNBHH26040346 | SPIRECURRENT INC | 6405.0 kg | 940190 | SEAT COVER |
| 2026-05-01 | NHLBNBMS26040021 | SOLACEWING INC | 8391.0 kg | 940190 | SEAT COVER |
| 2026-03-30 | ELNVNBE26020188 | SOLACEWING INC | 6092.0 kg | 842611.0 | SEAT COVER LUMBAR SUPPORT PILLOW |
| 2026-03-01 | SZJDFCLN26011832 | SOLACEWING INC | 6414.0 kg | 940190.0 | SEAT COVER |
| 2026-02-27 | NIVYNBHH26020146 | BRIGHT SPARK INC | 6076.0 kg | 940190.0 | SEAT COVER |
| 2026-02-26 | SZJDFCLN26011725 | SOLACEWING INC | 7755.0 kg | 940190.0 | SEAT COVER SEAT HOOD |
| 2026-02-26 | SZJDFCLN26011724 | SPIRECURRENT INC | 7699.0 kg | 940190.0 | SEAT COVER |
| 2026-02-26 | SZJDFCLN26011889 | SPIRECURRENT INC | 5642.0 kg | 940190.0 | SEAT COVER |
| 2026-02-26 | SZJDFCLN26011831 | SPIRECURRENT INC | 6154.0 kg | 940190.0 | SEAT COVER |
| 2026-02-26 | SZJDFCLN26011833 | BRIGHT SPARK INC | 6206.0 kg | 842611.0 | SEAT COVER LUMBAR SUPPORT PILLOW |
| 2026-02-22 | NIVYNBHH26010385 | SOLACEWING INC | 6231.0 kg | 940190.0 | SEAT COVER |
| 2026-02-12 | ELGDELI2601EF308 | BRIGHT SPARK INC | 6037.0 kg | 940190.0 | SEAT COVER |
| 2026-02-12 | ELGDELI2601EF309 | SOLACEWING INC | 6346.0 kg | 940190.0 | SEAT COVER |
| 2026-02-09 | SZJDFCLN26010605 | SPIRECURRENT INC | 6363.0 kg | 940190.0 | SEAT COVER |
| 2026-02-09 | SZJDFCLN26010602 | BRIGHT SPARK INC | 6335.0 kg | 842611.0 | SEAT COVER LUMBAR SUPPORT PILLOW |
| 2026-01-30 | SZJDFCLN26010134 | SPIRECURRENT INC | 6223.0 kg | 940190.0 | SEAT COVER |
| 2026-01-30 | SZJDFCLN26010572 | SOLACEWING INC | 6210.0 kg | 940190.0 | SEAT COVER |
| 2026-01-23 | SYLCFCLN25121655 | SOLACEWING INC | 7956.0 kg | 940190.0 | SEAT COVER |
| 2026-01-23 | SYLCFCLN25121657 | SPIRECURRENT INC | 6434.0 kg | 940190.0 | SEAT COVER |
| 2026-01-23 | NIVYNBHH26010002 | SOLACEWING INC | 6070.0 kg | 940190.0 | SEAT COVER |
| 2026-01-23 | SYLCFCLN25121809 | BRIGHT SPARK INC | 6342.0 kg | 940190.0 | SEAT COVER |
| 2026-01-17 | SQHNSHZG25121231 | AURORA FLOWING INC | 6083.0 kg | 940190.0 | SEAT COVER |
| 2026-01-16 | SYLCFCLN25121074 | AURORA FLOWING INC | 6365.0 kg | 940190.0 | SEAT COVER |
| 2026-01-16 | SYLCFCLN25121230 | BRIGHT SPARK INC | 8923.0 kg | 940190.0 | SEAT COVER SEAT HOOD |